Overview Statistics Trail Chart Weather Telemetry Raw packets
 

This is the latest recevied weather packets stored in our database for station/object 4S6DRJ-13. If no packets are shown the sender has not sent any weather packets the latest 10 day(s).

<< 213 214 215 216 217 218 219 >>
Time Temp. Humidity Pressure Rain* Wind** Luminosity Snow
1788150906 30.56° C 72% 1009.7 hPa 0 mm 2.68 m/s, 283° 957 W/m² -
1788150845 30.56° C 73% 1009.7 hPa 0 mm 0 m/s 624 W/m² -
1788150784 30.56° C 73% 1009.6 hPa 0 mm 1.34 m/s, 210° 1101 W/m² -
1788150722 30.56° C 73% 1009.7 hPa 0 mm 0.89 m/s, 227° 283 W/m² -
1788150661 30° C 73% 1009.8 hPa 0 mm 1.79 m/s, 297° 452 W/m² -
1788150600 30° C 74% 1009.8 hPa 0 mm 1.79 m/s, 208° 602 W/m² -
1788150540 30° C 74% 1009.9 hPa 0 mm 2.24 m/s, 133° 1107 W/m² -
1788150479 30° C 74% 1010 hPa 0 mm 2.24 m/s, 318° 935 W/m² -
1788150418 30° C 75% 1010.1 hPa 0 mm 0.89 m/s, 315° 1104 W/m² -
1788150357 30° C 75% 1009.9 hPa 0 mm 0.89 m/s, 307° 983 W/m² -
1788150296 30° C 74% 1009.9 hPa 0 mm 1.34 m/s, 319° 205 W/m² -
1788150235 30° C 75% 1009.7 hPa 0 mm 2.68 m/s, 268° 178 W/m² -
1788150174 30° C 75% 1010 hPa 0 mm 1.79 m/s, 303° 205 W/m² -
1788150112 30° C 75% 1010 hPa 0 mm 1.34 m/s, 201° 261 W/m² -
1788150052 30° C 75% 1010 hPa 0 mm 0.89 m/s, 234° 730 W/m² -
1788149991 30° C 76% 1010 hPa 0 mm 0.89 m/s, 62° 319 W/m² -
1788149930 30.56° C 75% 1009.8 hPa 0 mm 1.79 m/s, 286° 324 W/m² -
1788149869 30.56° C 75% 1010.1 hPa 0 mm 1.34 m/s, 228° 511 W/m² -
1788149808 30.56° C 75% 1010.2 hPa 0 mm 2.24 m/s, 242° 388 W/m² -
1788149747 30.56° C 75% 1010.2 hPa 0 mm 0.89 m/s, 50° 304 W/m² -
1788149686 30.56° C 74% 1010.1 hPa 0 mm 2.24 m/s, 329° 314 W/m² -
1788149625 30.56° C 73% 1010.2 hPa 0 mm 2.68 m/s, 279° 455 W/m² -
1788149564 30.56° C 74% 1010.1 hPa 0 mm 1.79 m/s, 320° 1107 W/m² -
1788149503 30.56° C 73% 1010.2 hPa 0 mm 4.02 m/s, 304° 1104 W/m² -
1788149442 30.56° C 73% 1010 hPa 0 mm 2.68 m/s, 292° 1102 W/m² -

* Rain latest hour (hover to see other rain measurements)
** Current wind speed in m/s (hover to see current wind gust speed)